sat.trackr.live / text

‹ back to catalog

STARLINK-32695

NORAD 62866 · 2025-022N

PAYLOAD ACTIVE UNKNOWN

§ Identity

Operator
Country
US
Launch date
2025-02-01
Launch site
AFWTR
Launch vehicle
Mass (kg)
RCS (m²)

Purposes: comms

External: N2YO · Heavens-Above · Gunter

§ Orbital elements

Epoch: 2026-05-25T03:38:54.591936Z

Period
93.85 min
Inclination
53.1589°
Eccentricity
0.0001391
Mean motion
15.34418001 rev/d
Perigee alt
461.7 km
Apogee alt
463.6 km
Semi-major
6,840.8 km
B*
7.8126e-4
RAAN
133.2667°
Arg perigee
85.8952°
Mean anomaly
274.2209°
Rev number
7,362

§ Raw data

STARLINK-326951 62866U 25022N   26145.15202074  .00026127  00000+0  78126-3 0  99922 62866  53.1589 133.2667 0001391  85.8952 274.2209 15.34418001 73621

JSON: /api/v1/satellites/62866 · /tle

For live sub-satellite position, see the globe view (requires WebGL).

§ Visibility from observer

Set your observer location to see the next 7 days of passes ≥ 10°. The values pass through the URL so the page stays shareable.

No JS? Fill the form by hand. The geolocation button needs JavaScript.